• In Italy
  • List of Countries
  • For 7 days
  • Water Temperature
  • Satellite Maps
  • Weather Map
  • Weather Widgets
  • user-avatar
    Login

    Hourly Weather Kaprun

    Today, 20 October, Saturday

    Time Temperature Precipitation Wind Pressure Humidity
    00:00 +2°C° 0 mm 1 mps 600 mmHg 94%
    01:00 +2°C° 0 mm 1 mps 600 mmHg 94%
    02:00 +2°C° 0 mm 1 mps 600 mmHg 94%
    03:00 +2°C° 0 mm 1 mps 600 mmHg 94%
    04:00 +1°C° 0 mm 1 mps 600 mmHg 94%
    05:00 +1°C° 0 mm 1 mps 600 mmHg 91%
    06:00 +1°C° 0 mm 1 mps 600 mmHg 88%
    07:00 +1°C° 0 mm 1 mps 601 mmHg 86%
    08:00 +3°C° 0 mm 1 mps 602 mmHg 78%
    09:00 +5°C° 0 mm 1 mps 603 mmHg 70%
    10:00 +7°C° 0 mm 1 mps 604 mmHg 62%
    11:00 +8°C° 0 mm 1 mps 604 mmHg 58%
    12:00 +8°C° 0 mm 2 mps 604 mmHg 54%
    13:00 +9°C° 0 mm 2 mps 605 mmHg 50%
    14:00 +8°C° 0 mm 2 mps 604 mmHg 56%
    15:00 +8°C° 0 mm 2 mps 604 mmHg 62%
    16:00 +7°C° 0 mm 2 mps 603 mmHg 68%
    17:00 +5°C° 0 mm 2 mps 603 mmHg 77%
    18:00 +4°C° 0 mm 2 mps 602 mmHg 85%
    19:00 +2°C° 0 mm 2 mps 602 mmHg 94%
    20:00 +2°C° 0 mm 2 mps 602 mmHg 94%
    21:00 +1°C° 0 mm 2 mps 601 mmHg 94%
    22:00 +1°C° 0 mm 2 mps 601 mmHg 94%
    23:00 +1°C° 0 mm 2 mps 601 mmHg 94%

    Tomorrow, 21 October, Sunday

    Time Temperature Precipitation Wind Pressure Humidity
    00:00 -1°C° 0 mm 2 mps 601 mmHg 93%
    01:00 -1°C° 0 mm 2 mps 601 mmHg 92%
    02:00 -1°C° 0 mm 2 mps 600 mmHg 91%
    03:00 -1°C° 0 mm 2 mps 600 mmHg 89%
    04:00 -1°C° 0 mm 2 mps 600 mmHg 88%
    05:00 -1°C° 0 mm 2 mps 600 mmHg 89%
    06:00 -1°C° 0 mm 2 mps 600 mmHg 91%
    07:00 -1°C° 0 mm 2 mps 600 mmHg 92%
    08:00 +1°C° 0.1 mm 2 mps 600 mmHg 84%
    09:00 +1°C° 0.1 mm 3 mps 601 mmHg 77%
    10:00 +2°C° 0.1 mm 3 mps 601 mmHg 69%
    11:00 +2°C° 0.1 mm 3 mps 601 mmHg 66%
    12:00 +3°C° 0.1 mm 3 mps 601 mmHg 63%
    13:00 +3°C° 0.1 mm 3 mps 601 mmHg 60%
    14:00 +2°C° 0 mm 3 mps 601 mmHg 61%
    15:00 +2°C° 0 mm 3 mps 600 mmHg 63%
    16:00 +2°C° 0 mm 2 mps 600 mmHg 65%
    17:00 -1°C° 0 mm 2 mps 600 mmHg 74%
    18:00 -2°C° 0 mm 2 mps 599 mmHg 83%
    19:00 -4°C° 0 mm 2 mps 599 mmHg 92%
    20:00 -4°C° 0 mm 2 mps 599 mmHg 91%
    21:00 -5°C° 0 mm 2 mps 599 mmHg 90%
    22:00 -5°C° 0 mm 2 mps 599 mmHg 89%
    23:00 -3°C° 0 mm 1 mps 599 mmHg 87%

    Day after tomorrow, 22 October, Monday

    Time Temperature Precipitation Wind Pressure Humidity
    00:00 -3°C° 0 mm 1 mps 599 mmHg 85%
    01:00 -3°C° 0 mm 1 mps 598 mmHg 84%
    02:00 -3°C° 0 mm 1 mps 598 mmHg 82%
    03:00 -3°C° 0 mm 1 mps 598 mmHg 80%
    04:00 -3°C° 0 mm 1 mps 598 mmHg 78%
    05:00 -3°C° 0 mm 1 mps 598 mmHg 76%
    06:00 -3°C° 0 mm 1 mps 598 mmHg 74%
    07:00 -3°C° 0 mm 1 mps 598 mmHg 72%
    08:00 0°C° 0 mm 1 mps 599 mmHg 63%
    09:00 +3°C° 0 mm 1 mps 601 mmHg 54%
    10:00 +5°C° 0 mm 1 mps 602 mmHg 45%
    11:00 +5°C° 0 mm 2 mps 602 mmHg 45%
    12:00 +6°C° 0 mm 2 mps 602 mmHg 45%
    13:00 +6°C° 0 mm 2 mps 602 mmHg 45%
    14:00 +5°C° 0 mm 2 mps 601 mmHg 51%
    15:00 +5°C° 0 mm 2 mps 601 mmHg 58%
    16:00 +4°C° 0 mm 2 mps 600 mmHg 64%
    17:00 +2°C° 0 mm 2 mps 600 mmHg 74%
    18:00 -1°C° 0 mm 2 mps 600 mmHg 83%
    19:00 -3°C° 0 mm 2 mps 600 mmHg 93%
    20:00 -3°C° 0 mm 2 mps 600 mmHg 93%
    21:00 -3°C° 0 mm 2 mps 601 mmHg 93%
    22:00 -3°C° 0 mm 2 mps 601 mmHg 93%
    23:00 -3°C° 0 mm 2 mps 601 mmHg 93%

    23 October, Tuesday

    Time Temperature Precipitation Wind Pressure Humidity
    00:00 -3°C° 0 mm 2 mps 601 mmHg 92%
    01:00 -4°C° 0 mm 2 mps 600 mmHg 92%
    02:00 -4°C° 0 mm 2 mps 600 mmHg 89%
    03:00 -3°C° 0 mm 2 mps 600 mmHg 86%
    04:00 -3°C° 0 mm 2 mps 600 mmHg 83%
    05:00 -3°C° 0 mm 2 mps 600 mmHg 84%
    06:00 -4°C° 0 mm 2 mps 600 mmHg 85%
    07:00 -4°C° 0 mm 2 mps 600 mmHg 86%
    08:00 -2°C° 0 mm 2 mps 601 mmHg 79%
    09:00 +1°C° 0 mm 2 mps 602 mmHg 72%
    10:00 +2°C° 0 mm 2 mps 602 mmHg 65%
    11:00 +3°C° 0 mm 2 mps 602 mmHg 62%
    12:00 +4°C° 0 mm 2 mps 602 mmHg 59%
    13:00 +5°C° 0 mm 2 mps 602 mmHg 56%
    14:00 +4°C° 0 mm 2 mps 602 mmHg 60%
    15:00 +4°C° 0 mm 2 mps 601 mmHg 63%
    16:00 +3°C° 0 mm 2 mps 601 mmHg 67%
    17:00 +2°C° 0 mm 2 mps 600 mmHg 74%
    18:00 -1°C° 0 mm 2 mps 600 mmHg 81%
    19:00 -2°C° 0 mm 2 mps 599 mmHg 88%
    20:00 -2°C° 0 mm 2 mps 599 mmHg 87%
    21:00 -2°C° 0 mm 2 mps 599 mmHg 86%
    22:00 -2°C° 0 mm 2 mps 599 mmHg 85%
    23:00 -2°C° 0.1 mm 2 mps 599 mmHg 84%

    24 October, Wednesday

    Time Temperature Precipitation Wind Pressure Humidity
    00:00 -2°C° 0.1 mm 3 mps 599 mmHg 83%
    01:00 -1°C° 0.1 mm 3 mps 599 mmHg 82%
    02:00 -1°C° 0.4 mm 3 mps 598 mmHg 83%
    03:00 -1°C° 0.4 mm 3 mps 598 mmHg 84%
    04:00 -1°C° 0.4 mm 3 mps 598 mmHg 85%
    05:00 0°C° 0.7 mm 3 mps 598 mmHg 87%
    06:00 0°C° 0.7 mm 3 mps 598 mmHg 89%
    07:00 0°C° 0.7 mm 3 mps 598 mmHg 91%
    08:00 0°C° 1.1 mm 4 mps 598 mmHg 90%
    09:00 0°C° 1.1 mm 4 mps 598 mmHg 88%
    10:00 +1°C° 1.1 mm 4 mps 599 mmHg 87%
    11:00 +1°C° 1.4 mm 4 mps 599 mmHg 87%
    12:00 +3°C° 1.4 mm 4 mps 598 mmHg 86%
    13:00 +3°C° 1.4 mm 3 mps 598 mmHg 86%
    14:00 +2°C° 1.3 mm 3 mps 598 mmHg 88%
    15:00 +2°C° 1.3 mm 3 mps 598 mmHg 89%
    16:00 +2°C° 1.3 mm 3 mps 598 mmHg 91%
    17:00 +2°C° 1.2 mm 3 mps 598 mmHg 92%
    18:00 +2°C° 1.2 mm 3 mps 598 mmHg 93%
    19:00 +1°C° 1.2 mm 3 mps 599 mmHg 94%
    20:00 +1°C° 0.9 mm 3 mps 599 mmHg 94%
    21:00 +1°C° 0.9 mm 3 mps 599 mmHg 94%
    22:00 +1°C° 0.9 mm 3 mps 599 mmHg 94%
    23:00 +1°C° 0.7 mm 3 mps 599 mmHg 94%

    25 October, Thursday

    Time Temperature Precipitation Wind Pressure Humidity
    00:00 +1°C° 0.7 mm 3 mps 599 mmHg 95%
    01:00 +1°C° 0.7 mm 3 mps 599 mmHg 95%
    02:00 +1°C° 0.2 mm 3 mps 599 mmHg 95%
    03:00 +1°C° 0.2 mm 3 mps 599 mmHg 95%
    04:00 0°C° 0.2 mm 3 mps 599 mmHg 96%
    05:00 +1°C° 0.1 mm 2 mps 599 mmHg 96%
    06:00 +1°C° 0.1 mm 2 mps 599 mmHg 95%
    07:00 +1°C° 0.1 mm 2 mps 599 mmHg 95%
    08:00 +2°C° 0 mm 2 mps 599 mmHg 90%
    09:00 +3°C° 0 mm 2 mps 600 mmHg 85%
    10:00 +5°C° 0 mm 2 mps 600 mmHg 79%
    11:00 +6°C° 0 mm 2 mps 601 mmHg 72%
    12:00 +7°C° 0 mm 2 mps 601 mmHg 66%
    13:00 +8°C° 0 mm 2 mps 601 mmHg 59%
    14:00 +8°C° 0 mm 2 mps 600 mmHg 63%
    15:00 +8°C° 0 mm 1 mps 600 mmHg 66%
    16:00 +7°C° 0 mm 1 mps 599 mmHg 70%
    17:00 +5°C° 0 mm 1 mps 599 mmHg 76%
    18:00 +4°C° 0 mm 1 mps 598 mmHg 81%
    19:00 +2°C° 0 mm 1 mps 597 mmHg 86%
    20:00 +2°C° 0 mm 1 mps 597 mmHg 85%
    21:00 +1°C° 0 mm 1 mps 597 mmHg 83%
    22:00 +1°C° 0 mm 1 mps 597 mmHg 82%
    23:00 +1°C° 0 mm 1 mps 596 mmHg 79%
    Show more